| time (UTC) | temp C | wind direction | speed KPH | gust KPH | rain 1hr cm | rain 24hr cm | rain mn cm | humidity % | barometer mb |
| 20260507155818 | 11 | 325 | 6.4 | 0.0 | 0.00 | 0.00 | 0.00 | 50 | 1016.8 |
| 20260507155326 | 11 | 281 | 8.0 | 0.0 | 0.00 | 0.00 | 0.00 | 51 | 1016.8 |
| 20260507154817 | 11 | 286 | 6.4 | 0.0 | 0.00 | 0.00 | 0.00 | 51 | 1016.7 |
| 20260507154325 | 11 | 323 | 8.0 | 0.0 | 0.00 | 0.00 | 0.00 | 51 | 1016.7 |
| 20260507153834 | 11 | 315 | 8.0 | 0.0 | 0.00 | 0.00 | 0.00 | 50 | 1016.7 |
| 20260507153320 | 11 | 246 | 11.3 | 0.0 | 0.00 | 0.00 | 0.00 | 50 | 1016.6 |
| 20260507152829 | 10 | 284 | 11.3 | 0.0 | 0.00 | 0.00 | 0.00 | 50 | 1016.6 |
| 20260507152316 | 10 | 292 | 9.7 | 0.0 | 0.00 | 0.00 | 0.00 | 51 | 1016.6 |
| 20260507151825 | 10 | 281 | 6.4 | 0.0 | 0.00 | 0.00 | 0.00 | 51 | 1016.6 |
| 20260507151332 | 11 | 285 | 4.8 | 0.0 | 0.00 | 0.00 | 0.00 | 52 | 1016.6 |
| 20260507150820 | 10 | 350 | 4.8 | 0.0 | 0.00 | 0.00 | 0.00 | 49 | 1016.6 |
| 20260507150334 | 10 | 286 | 3.2 | 0.0 | 0.00 | 0.00 | 0.00 | 51 | 1016.6 |
| 20260507145821 | 10 | 296 | 3.2 | 0.0 | 0.00 | 0.00 | 0.00 | 50 | 1016.6 |
| 20260507145330 | 11 | 332 | 3.2 | 0.0 | 0.00 | 0.00 | 0.00 | 51 | 1016.6 |
| 20260507144817 | 10 | 298 | 1.6 | 0.0 | 0.00 | 0.00 | 0.00 | 52 | 1016.6 |
| 20260507144325 | 10 | 319 | 3.2 | 0.0 | 0.00 | 0.00 | 0.00 | 54 | 1016.6 |
| 20260507143834 | 10 | 322 | 4.8 | 0.0 | 0.00 | 0.00 | 0.00 | 53 | 1016.6 |
| 20260507143320 | 10 | 296 | 6.4 | 0.0 | 0.00 | 0.00 | 0.00 | 53 | 1016.6 |
| 20260507142317 | 10 | 279 | 8.0 | 0.0 | 0.00 | 0.00 | 0.00 | 54 | 1016.6 |
| 20260507141826 | 10 | 292 | 6.4 | 0.0 | 0.00 | 0.00 | 0.00 | 53 | 1016.7 |
| 20260507141316 | 9 | 271 | 4.8 | 0.0 | 0.00 | 0.00 | 0.00 | 54 | 1016.7 |
| 20260507140825 | 9 | 285 | 3.2 | 0.0 | 0.00 | 0.00 | 0.00 | 55 | 1016.7 |
| 20260507140332 | 9 | 310 | 3.2 | 0.0 | 0.00 | 0.00 | 0.00 | 56 | 1016.7 |
| 20260507135819 | 9 | 322 | 3.2 | 0.0 | 0.00 | 0.00 | 0.00 | 56 | 1016.7 |
| 20260507135327 | 9 | 336 | 4.8 | 0.0 | 0.00 | 0.00 | 0.00 | 59 | 1016.7 |
| 20260507134836 | 9 | 270 | 4.8 | 0.0 | 0.00 | 0.00 | 0.00 | 57 | 1016.6 |
| 20260507134324 | 9 | 298 | 1.6 | 0.0 | 0.00 | 0.00 | 0.00 | 60 | 1016.6 |
| 20260507133833 | 9 | 319 | 3.2 | 0.0 | 0.00 | 0.00 | 0.00 | 59 | 1016.6 |
| 20260507133319 | 9 | 344 | 3.2 | 0.0 | 0.00 | 0.00 | 0.00 | 61 | 1016.7 |
| 20260507131814 | 8 | 329 | 1.6 | 0.0 | 0.00 | 0.00 | 0.00 | 66 | 1016.7 |
| 20260507131324 | 8 | 296 | 1.6 | 0.0 | 0.00 | 0.00 | 0.00 | 66 | 1016.7 |
| 20260507130833 | 8 | 345 | 1.6 | 0.0 | 0.00 | 0.00 | 0.00 | 68 | 1016.7 |
| 20260507130321 | 8 | 281 | 1.6 | 0.0 | 0.00 | 0.00 | 0.00 | 70 | 1016.7 |
| 20260507125828 | 8 | 338 | 1.6 | 0.0 | 0.00 | 0.00 | 0.00 | 71 | 1016.7 |
| 20260507125336 | 7 | 286 | 1.6 | 0.0 | 0.00 | 0.00 | 0.00 | 72 | 1016.7 |
| 20260507124333 | 7 | 333 | 1.6 | 0.0 | 0.00 | 0.00 | 0.00 | 75 | 1016.7 |
| 20260507123330 | 7 | 323 | 0.0 | 0.0 | 0.00 | 0.00 | 0.00 | 78 | 1016.7 |
| 20260507122823 | 7 | 330 | 0.0 | 0.0 | 0.00 | 0.00 | 0.00 | 80 | 1016.7 |
| 20260507122330 | 7 | 308 | 0.0 | 0.0 | 0.00 | 0.00 | 0.00 | 81 | 1016.7 |
| 20260507121818 | 6 | 286 | 0.0 | 0.0 | 0.00 | 0.00 | 0.00 | 83 | 1016.7 |
| 20260507121325 | 6 | 292 | 0.0 | 0.0 | 0.00 | 0.00 | 0.00 | 84 | 1016.7 |
| 20260507120834 | 6 | 330 | 0.0 | 0.0 | 0.00 | 0.00 | 0.00 | 86 | 1016.7 |
| 20260507115833 | 6 | 305 | 0.0 | 0.0 | 0.00 | 0.00 | 0.00 | 88 | 1016.7 |
| 20260507115320 | 5 | 305 | 0.0 | 0.0 | 0.00 | 0.00 | 0.00 | 88 | 1016.7 |
| 20260507114830 | 5 | 318 | 0.0 | 0.0 | 0.00 | 0.00 | 0.00 | 89 | 1016.7 |
| 20260507114323 | 5 | 315 | 0.0 | 0.0 | 0.00 | 0.00 | 0.00 | 90 | 1016.7 |
| 20260507113831 | 5 | 315 | 0.0 | 0.0 | 0.00 | 0.00 | 0.00 | 90 | 1016.7 |
| 20260507113317 | 5 | 313 | 0.0 | 0.0 | 0.00 | 0.00 | 0.00 | 91 | 1016.7 |
| 20260507111827 | 4 | 313 | 0.0 | 0.0 | 0.00 | 0.00 | 0.00 | 91 | 1016.2 |
| 20260507111335 | 4 | 313 | 0.0 | 0.0 | 0.00 | 0.00 | 0.00 | 91 | 1016.2 |
| 20260507110824 | 3 | 313 | 0.0 | 0.0 | 0.00 | 0.00 | 0.00 | 90 | 1016.2 |
| 20260507105820 | 3 | 314 | 0.0 | 0.0 | 0.00 | 0.00 | 0.00 | 90 | 1016.2 |
| 20260507105331 | 4 | 314 | 0.0 | 0.0 | 0.00 | 0.00 | 0.00 | 90 | 1016.2 |
| 20260507104824 | 4 | 313 | 0.0 | 0.0 | 0.00 | 0.00 | 0.00 | 90 | 1016.1 |
| 20260507104332 | 4 | 314 | 0.0 | 0.0 | 0.00 | 0.00 | 0.00 | 90 | 1016.1 |
| 20260507103328 | 4 | 313 | 0.0 | 0.0 | 0.00 | 0.00 | 0.00 | 90 | 1016.1 |
| 20260507102817 | 4 | 313 | 0.0 | 0.0 | 0.00 | 0.00 | 0.00 | 91 | 1016.1 |
| 20260507102324 | 4 | 314 | 0.0 | 0.0 | 0.00 | 0.00 | 0.00 | 90 | 1016.1 |
| 20260507101832 | 4 | 314 | 0.0 | 0.0 | 0.00 | 0.00 | 0.00 | 90 | 1016.1 |
| 20260507101319 | 4 | 314 | 0.0 | 0.0 | 0.00 | 0.00 | 0.00 | 90 | 1016.1 |
| 20260507100829 | 4 | 314 | 0.0 | 0.0 | 0.00 | 0.00 | 0.00 | 90 | 1016.1 |
| 20260507100336 | 4 | 314 | 0.0 | 0.0 | 0.00 | 0.00 | 0.00 | 91 | 1016.1 |
| 20260507095828 | 4 | 314 | 0.0 | 0.0 | 0.00 | 0.00 | 0.00 | 91 | 1016.1 |
| 20260507095336 | 4 | 313 | 0.0 | 0.0 | 0.00 | 0.00 | 0.00 | 91 | 1016.1 |
| 20260507094822 | 4 | 314 | 0.0 | 0.0 | 0.00 | 0.00 | 0.00 | 91 | 1016.1 |
| 20260507094333 | 4 | 314 | 0.0 | 0.0 | 0.00 | 0.00 | 0.00 | 91 | 1016.1 |
| 20260507093822 | 5 | 314 | 0.0 | 0.0 | 0.00 | 0.00 | 0.00 | 91 | 1016.1 |
| 20260507093328 | 5 | 314 | 0.0 | 0.0 | 0.00 | 0.00 | 0.00 | 91 | 1015.8 |
| 20260507092815 | 5 | 314 | 0.0 | 0.0 | 0.00 | 0.00 | 0.00 | 91 | 1015.8 |
| 20260507092326 | 5 | 314 | 0.0 | 0.0 | 0.00 | 0.00 | 0.00 | 91 | 1015.8 |
| 20260507091325 | 5 | 314 | 0.0 | 0.0 | 0.00 | 0.00 | 0.00 | 91 | 1015.8 |
| 20260507090326 | 5 | 314 | 0.0 | 0.0 | 0.00 | 0.00 | 0.00 | 91 | 1015.7 |
| 20260507085834 | 5 | 314 | 0.0 | 0.0 | 0.00 | 0.00 | 0.00 | 91 | 1015.7 |
| 20260507085322 | 5 | 314 | 0.0 | 0.0 | 0.00 | 0.00 | 0.00 | 91 | 1015.7 |
| 20260507084830 | 5 | 314 | 0.0 | 0.0 | 0.00 | 0.00 | 0.00 | 91 | 1015.6 |
| 20260507083828 | 5 | 314 | 0.0 | 0.0 | 0.00 | 0.00 | 0.00 | 91 | 1015.6 |
| 20260507083336 | 5 | 314 | 0.0 | 0.0 | 0.00 | 0.00 | 0.00 | 91 | 1015.5 |
| 20260507082823 | 5 | 314 | 0.0 | 0.0 | 0.00 | 0.00 | 0.00 | 91 | 1015.5 |
| 20260507082332 | 5 | 314 | 0.0 | 0.0 | 0.00 | 0.00 | 0.00 | 91 | 1015.5 |
| 20260507081825 | 5 | 314 | 0.0 | 0.0 | 0.00 | 0.00 | 0.00 | 91 | 1015.5 |
| 20260507081331 | 5 | 313 | 0.0 | 0.0 | 0.00 | 0.00 | 0.00 | 91 | 1015.5 |
| 20260507080822 | 5 | 314 | 0.0 | 0.0 | 0.00 | 0.00 | 0.00 | 91 | 1015.5 |
| 20260507080329 | 5 | 314 | 0.0 | 0.0 | 0.00 | 0.00 | 0.00 | 91 | 1015.5 |
| 20260507075817 | 5 | 314 | 0.0 | 0.0 | 0.00 | 0.00 | 0.00 | 91 | 1015.5 |
| 20260507074835 | 5 | 314 | 0.0 | 0.0 | 0.00 | 0.00 | 0.00 | 91 | 1015.6 |
| 20260507074324 | 5 | 314 | 0.0 | 0.0 | 0.00 | 0.00 | 0.00 | 91 | 1015.6 |
| 20260507073832 | 5 | 314 | 0.0 | 0.0 | 0.00 | 0.00 | 0.00 | 91 | 1015.6 |
| 20260507073319 | 6 | 314 | 0.0 | 0.0 | 0.00 | 0.00 | 0.00 | 91 | 1015.6 |
| 20260507072830 | 6 | 314 | 0.0 | 0.0 | 0.00 | 0.00 | 0.00 | 91 | 1015.6 |
| 20260507072318 | 6 | 314 | 0.0 | 0.0 | 0.00 | 0.00 | 0.00 | 91 | 1015.6 |
| 20260507071336 | 6 | 314 | 0.0 | 0.0 | 0.00 | 0.00 | 0.00 | 91 | 1015.6 |
| 20260507070825 | 6 | 313 | 0.0 | 0.0 | 0.00 | 0.00 | 0.00 | 91 | 1015.6 |
| 20260507070332 | 5 | 314 | 0.0 | 0.0 | 0.00 | 0.00 | 0.00 | 90 | 1015.7 |
| 20260507065819 | 6 | 314 | 0.0 | 0.0 | 0.00 | 0.00 | 0.00 | 90 | 1015.7 |
| 20260507065328 | 6 | 314 | 0.0 | 0.0 | 0.00 | 0.00 | 0.00 | 90 | 1015.7 |
| 20260507063837 | 6 | 314 | 0.0 | 0.0 | 0.00 | 0.00 | 0.00 | 90 | 1015.8 |
| 20260507063329 | 6 | 314 | 0.0 | 0.0 | 0.00 | 0.00 | 0.00 | 90 | 1015.9 |
| 20260507062836 | 6 | 314 | 0.0 | 0.0 | 0.00 | 0.00 | 0.00 | 89 | 1015.9 |
| 20260507062325 | 6 | 314 | 0.0 | 0.0 | 0.00 | 0.00 | 0.00 | 89 | 1015.9 |
| 20260507061832 | 6 | 314 | 0.0 | 0.0 | 0.00 | 0.00 | 0.00 | 89 | 1015.9 |
| 20260507061320 | 6 | 314 | 0.0 | 0.0 | 0.00 | 0.00 | 0.00 | 89 | 1015.9 |
| 20260507060829 | 6 | 314 | 0.0 | 0.0 | 0.00 | 0.00 | 0.00 | 88 | 1015.9 |
| 20260507060335 | 6 | 313 | 0.0 | 0.0 | 0.00 | 0.00 | 0.00 | 88 | 1016.0 |
| 20260507055823 | 6 | 314 | 0.0 | 0.0 | 0.00 | 0.00 | 0.00 | 88 | 1016.0 |
| 20260507055330 | 6 | 314 | 0.0 | 0.0 | 0.00 | 0.00 | 0.00 | 87 | 1016.0 |
| 20260507054823 | 6 | 314 | 0.0 | 0.0 | 0.00 | 0.00 | 0.00 | 86 | 1015.9 |
| 20260507053821 | 7 | 314 | 0.0 | 0.0 | 0.00 | 0.00 | 0.00 | 85 | 1015.9 |
| 20260507053329 | 7 | 314 | 0.0 | 0.0 | 0.00 | 0.00 | 0.00 | 84 | 1016.1 |
| 20260507052817 | 7 | 314 | 0.0 | 0.0 | 0.00 | 0.00 | 0.00 | 84 | 1016.1 |
| 20260507052325 | 7 | 314 | 0.0 | 0.0 | 0.00 | 0.00 | 0.00 | 84 | 1016.1 |
| 20260507051832 | 7 | 313 | 0.0 | 0.0 | 0.00 | 0.00 | 0.00 | 84 | 1016.1 |
| 20260507051321 | 7 | 314 | 0.0 | 0.0 | 0.00 | 0.00 | 0.00 | 84 | 1016.1 |
| 20260507050829 | 7 | 314 | 0.0 | 0.0 | 0.00 | 0.00 | 0.00 | 84 | 1016.1 |
| 20260507050335 | 7 | 314 | 0.0 | 0.0 | 0.00 | 0.00 | 0.00 | 84 | 1016.1 |
| 20260507045826 | 8 | 314 | 0.0 | 0.0 | 0.00 | 0.00 | 0.00 | 84 | 1016.1 |
| 20260507045333 | 8 | 314 | 0.0 | 0.0 | 0.00 | 0.00 | 0.00 | 84 | 1016.1 |
| 20260507043823 | 7 | 314 | 0.0 | 0.0 | 0.00 | 0.00 | 0.00 | 83 | 1015.9 |
| 20260507043332 | 7 | 314 | 0.0 | 0.0 | 0.00 | 0.00 | 0.00 | 82 | 1016.0 |
| 20260507042821 | 8 | 314 | 0.0 | 0.0 | 0.00 | 0.00 | 0.00 | 82 | 1016.0 |
| 20260507042328 | 8 | 314 | 0.0 | 0.0 | 0.00 | 0.00 | 0.00 | 82 | 1016.0 |
| 20260507041817 | 8 | 314 | 0.0 | 0.0 | 0.00 | 0.00 | 0.00 | 81 | 1015.7 |
| 20260507040835 | 8 | 314 | 0.0 | 0.0 | 0.00 | 0.00 | 0.00 | 80 | 1015.7 |
| 20260507035836 | 8 | 314 | 0.0 | 0.0 | 0.00 | 0.00 | 0.05 | 78 | 1015.9 |
| 20260507035324 | 8 | 314 | 0.0 | 0.0 | 0.00 | 0.00 | 0.05 | 77 | 1015.9 |
| 20260507034832 | 8 | 314 | 0.0 | 0.0 | 0.00 | 0.00 | 0.05 | 77 | 1015.8 |
| 20260507034319 | 8 | 314 | 0.0 | 0.0 | 0.00 | 0.00 | 0.05 | 77 | 1015.8 |
| 20260507033828 | 8 | 314 | 0.0 | 0.0 | 0.00 | 0.00 | 0.05 | 77 | 1015.8 |
| 20260507032824 | 8 | 314 | 0.0 | 0.0 | 0.00 | 0.00 | 0.05 | 76 | 1016.0 |
| 20260507032331 | 8 | 314 | 0.0 | 0.0 | 0.00 | 0.00 | 0.05 | 76 | 1016.0 |
| 20260507031819 | 8 | 314 | 0.0 | 0.0 | 0.00 | 0.00 | 0.05 | 76 | 1016.0 |
| 20260507030823 | 8 | 314 | 0.0 | 0.0 | 0.00 | 0.00 | 0.05 | 76 | 1016.0 |
| 20260507025820 | 8 | 314 | 0.0 | 0.0 | 0.00 | 0.00 | 0.05 | 76 | 1016.1 |
| 20260507025329 | 8 | 314 | 0.0 | 0.0 | 0.00 | 0.00 | 0.05 | 76 | 1016.1 |
| 20260507024327 | 9 | 314 | 0.0 | 0.0 | 0.00 | 0.00 | 0.05 | 75 | 1016.1 |
| 20260507023835 | 9 | 314 | 0.0 | 0.0 | 0.00 | 0.00 | 0.05 | 74 | 1016.1 |
| 20260507022835 | 9 | 314 | 0.0 | 0.0 | 0.00 | 0.00 | 0.05 | 73 | 1016.0 |
| 20260507022322 | 9 | 314 | 0.0 | 0.0 | 0.00 | 0.00 | 0.05 | 72 | 1016.0 |
| 20260507021831 | 10 | 314 | 0.0 | 0.0 | 0.00 | 0.00 | 0.05 | 72 | 1015.9 |
| 20260507021324 | 10 | 314 | 0.0 | 0.0 | 0.00 | 0.00 | 0.05 | 71 | 1015.9 |
| 20260507020831 | 10 | 314 | 0.0 | 0.0 | 0.00 | 0.00 | 0.05 | 71 | 1015.9 |
| 20260507020320 | 10 | 314 | 0.0 | 0.0 | 0.00 | 0.00 | 0.05 | 70 | 1015.6 |
| 20260507015829 | 10 | 313 | 0.0 | 0.0 | 0.00 | 0.00 | 0.05 | 69 | 1015.6 |
| 20260507015316 | 10 | 314 | 0.0 | 0.0 | 0.00 | 0.00 | 0.05 | 69 | 1015.6 |
| 20260507014825 | 10 | 314 | 0.0 | 0.0 | 0.00 | 0.00 | 0.05 | 69 | 1015.5 |
| 20260507014332 | 10 | 314 | 0.0 | 0.0 | 0.00 | 0.00 | 0.05 | 69 | 1015.5 |
| 20260507013820 | 10 | 314 | 0.0 | 0.0 | 0.00 | 0.00 | 0.05 | 68 | 1015.5 |
| 20260507013328 | 11 | 314 | 0.0 | 0.0 | 0.00 | 0.00 | 0.05 | 68 | 1015.4 |
| 20260507012818 | 11 | 314 | 0.0 | 0.0 | 0.00 | 0.00 | 0.05 | 67 | 1015.4 |
| 20260507012327 | 11 | 314 | 0.0 | 0.0 | 0.00 | 0.00 | 0.05 | 67 | 1015.4 |
| 20260507011833 | 11 | 314 | 0.0 | 0.0 | 0.00 | 0.00 | 0.05 | 67 | 1015.5 |
| 20260507011322 | 11 | 314 | 0.0 | 0.0 | 0.00 | 0.00 | 0.05 | 66 | 1015.5 |
| 20260507010319 | 11 | 313 | 0.0 | 0.0 | 0.00 | 0.00 | 0.05 | 66 | 1015.4 |
| 20260507005317 | 11 | 313 | 0.0 | 0.0 | 0.00 | 0.00 | 0.05 | 65 | 1015.4 |
| 20260507004825 | 11 | 314 | 0.0 | 0.0 | 0.00 | 0.00 | 0.05 | 65 | 1015.0 |
| 20260507004332 | 11 | 314 | 0.0 | 0.0 | 0.00 | 0.00 | 0.05 | 65 | 1015.0 |
| 20260507003823 | 11 | 313 | 0.0 | 0.0 | 0.00 | 0.00 | 0.05 | 65 | 1015.0 |
| 20260507003333 | 11 | 315 | 0.0 | 0.0 | 0.00 | 0.00 | 0.05 | 64 | 1014.9 |
| 20260507002820 | 11 | 315 | 0.0 | 0.0 | 0.00 | 0.00 | 0.05 | 63 | 1014.9 |
| 20260507002331 | 11 | 315 | 0.0 | 0.0 | 0.00 | 0.00 | 0.05 | 62 | 1014.9 |
| 20260507001818 | 12 | 315 | 0.0 | 0.0 | 0.00 | 0.00 | 0.05 | 61 | 1014.9 |
| 20260507001328 | 12 | 315 | 0.0 | 0.0 | 0.00 | 0.00 | 0.05 | 61 | 1014.9 |
| 20260507000837 | 12 | 315 | 0.0 | 0.0 | 0.00 | 0.00 | 0.05 | 61 | 1014.9 |
| 20260507000324 | 12 | 315 | 0.0 | 0.0 | 0.00 | 0.00 | 0.05 | 61 | 1014.8 |
| 20260506235324 | 12 | 284 | 0.0 | 0.0 | 0.00 | 0.00 | 0.03 | 59 | 1014.8 |
| 20260506234832 | 12 | 284 | 0.0 | 0.0 | 0.00 | 0.00 | 0.03 | 59 | 1014.5 |
| 20260506234324 | 12 | 284 | 1.6 | 0.0 | 0.00 | 0.00 | 0.03 | 58 | 1014.5 |
| 20260506233320 | 13 | 303 | 1.6 | 0.0 | 0.00 | 0.00 | 0.03 | 57 | 1014.5 |
| 20260506232829 | 13 | 288 | 1.6 | 0.0 | 0.00 | 0.00 | 0.03 | 57 | 1014.5 |
| 20260506232317 | 13 | 293 | 0.0 | 0.0 | 0.00 | 0.00 | 0.03 | 57 | 1014.5 |
| 20260506231825 | 13 | 345 | 1.6 | 0.0 | 0.00 | 0.00 | 0.03 | 56 | 1014.7 |
| 20260506230823 | 13 | 333 | 3.2 | 0.0 | 0.00 | 0.00 | 0.03 | 55 | 1014.7 |
| 20260506230333 | 13 | 279 | 3.2 | 0.0 | 0.00 | 0.00 | 0.03 | 54 | 1014.7 |
| 20260506225820 | 13 | 289 | 0.0 | 0.0 | 0.00 | 0.00 | 0.03 | 56 | 1014.7 |
| 20260506225332 | 13 | 327 | 1.6 | 0.0 | 0.00 | 0.00 | 0.03 | 56 | 1014.7 |
| 20260506224820 | 12 | 329 | 0.0 | 0.0 | 0.00 | 0.00 | 0.03 | 57 | 1014.9 |
| 20260506224328 | 12 | 355 | 0.0 | 0.0 | 0.00 | 0.00 | 0.03 | 56 | 1014.9 |
| 20260506223816 | 12 | 327 | 0.0 | 0.0 | 0.00 | 0.00 | 0.03 | 58 | 1014.9 |
| 20260506223325 | 12 | 355 | 0.0 | 0.0 | 0.00 | 0.00 | 0.03 | 56 | 1014.9 |
| 20260506222832 | 12 | 284 | 0.0 | 0.0 | 0.00 | 0.00 | 0.03 | 57 | 1014.9 |
| 20260506222323 | 12 | 324 | 0.0 | 0.0 | 0.00 | 0.00 | 0.03 | 58 | 1014.9 |
| 20260506221830 | 12 | 289 | 0.0 | 0.0 | 0.00 | 0.00 | 0.03 | 57 | 1014.9 |
| 20260506221319 | 12 | 284 | 0.0 | 0.0 | 0.00 | 0.00 | 0.03 | 56 | 1014.9 |
| 20260506215831 | 13 | 348 | 0.0 | 0.0 | 0.00 | 0.00 | 0.03 | 57 | 1014.9 |
| 20260506215317 | 13 | 338 | 0.0 | 0.0 | 0.00 | 0.00 | 0.03 | 58 | 1014.9 |
| 20260506214825 | 13 | 314 | 0.0 | 0.0 | 0.00 | 0.00 | 0.03 | 58 | 1014.9 |
| 20260506214330 | 13 | 313 | 0.0 | 0.0 | 0.00 | 0.00 | 0.03 | 56 | 1014.9 |
| 20260506213838 | 13 | 43 | 0.0 | 0.0 | 0.00 | 0.00 | 0.03 | 56 | 1014.9 |
| 20260506213325 | 13 | 329 | 0.0 | 0.0 | 0.00 | 0.00 | 0.03 | 56 | 1014.6 |
| 20260506212830 | 13 | 50 | 0.0 | 0.0 | 0.00 | 0.00 | 0.03 | 55 | 1014.6 |
| 20260506212319 | 13 | 254 | 1.6 | 0.0 | 0.00 | 0.00 | 0.03 | 55 | 1014.6 |
| 20260506211321 | 13 | 309 | 3.2 | 0.0 | 0.00 | 0.00 | 0.03 | 56 | 1014.4 |
| 20260506210830 | 13 | 330 | 1.6 | 0.0 | 0.00 | 0.00 | 0.03 | 57 | 1014.4 |
| 20260506210337 | 13 | 327 | 0.0 | 0.0 | 0.00 | 0.00 | 0.03 | 56 | 1014.4 |
| 20260506205823 | 13 | 342 | 0.0 | 0.0 | 0.00 | 0.00 | 0.03 | 57 | 1014.4 |
| 20260506205331 | 13 | 311 | 1.6 | 0.0 | 0.00 | 0.00 | 0.03 | 58 | 1014.4 |
| 20260506204819 | 13 | 346 | 1.6 | 0.0 | 0.00 | 0.00 | 0.03 | 56 | 1014.4 |
| 20260506204326 | 13 | 346 | 0.0 | 0.0 | 0.00 | 0.00 | 0.03 | 58 | 1014.4 |
| 20260506203816 | 13 | 355 | 0.0 | 0.0 | 0.00 | 0.00 | 0.03 | 55 | 1014.4 |
| 20260506203326 | 13 | 313 | 0.0 | 0.0 | 0.00 | 0.00 | 0.03 | 57 | 1014.3 |
| 20260506202816 | 13 | 328 | 0.0 | 0.0 | 0.00 | 0.00 | 0.03 | 58 | 1014.3 |
| 20260506202325 | 13 | 298 | 0.0 | 0.0 | 0.00 | 0.00 | 0.03 | 56 | 1014.3 |
| 20260506201832 | 13 | 287 | 0.0 | 0.0 | 0.00 | 0.00 | 0.03 | 55 | 1014.3 |
| 20260506201322 | 13 | 340 | 0.0 | 0.0 | 0.00 | 0.00 | 0.03 | 55 | 1014.3 |
| 20260506200831 | 13 | 336 | 1.6 | 0.0 | 0.00 | 0.00 | 0.03 | 55 | 1014.3 |
| 20260506200318 | 13 | 287 | 3.2 | 0.0 | 0.00 | 0.00 | 0.03 | 55 | 1014.3 |
| 20260506195827 | 13 | 338 | 1.6 | 0.0 | 0.00 | 0.00 | 0.03 | 56 | 1014.3 |
| 20260506195335 | 13 | 319 | 0.0 | 0.0 | 0.00 | 0.00 | 0.03 | 55 | 1014.3 |
| 20260506194823 | 13 | 338 | 1.6 | 0.0 | 0.00 | 0.00 | 0.03 | 54 | 1014.0 |
| 20260506193824 | 13 | 263 | 1.6 | 0.0 | 0.00 | 0.00 | 0.03 | 53 | 1014.0 |
| 20260506193331 | 13 | 315 | 1.6 | 0.0 | 0.00 | 0.00 | 0.03 | 55 | 1014.0 |
| 20260506192819 | 13 | 317 | 3.2 | 0.0 | 0.00 | 0.00 | 0.03 | 54 | 1014.0 |
| 20260506192328 | 13 | 338 | 3.2 | 0.0 | 0.00 | 0.00 | 0.03 | 53 | 1014.0 |
| 20260506190837 | 13 | 319 | 3.2 | 0.0 | 0.00 | 0.00 | 0.03 | 55 | 1014.2 |
| 20260506190323 | 13 | 303 | 3.2 | 0.0 | 0.00 | 0.00 | 0.03 | 55 | 1013.9 |
| 20260506185830 | 13 | 284 | 1.6 | 0.0 | 0.00 | 0.00 | 0.03 | 54 | 1013.9 |
| 20260506185321 | 13 | 341 | 1.6 | 0.0 | 0.00 | 0.00 | 0.03 | 55 | 1013.9 |
| 20260506184828 | 13 | 323 | 3.2 | 0.0 | 0.00 | 0.00 | 0.03 | 55 | 1013.8 |
| 20260506183832 | 14 | 325 | 3.2 | 0.0 | 0.00 | 0.00 | 0.03 | 53 | 1013.8 |
| 20260506183318 | 14 | 355 | 3.2 | 0.0 | 0.00 | 0.00 | 0.03 | 56 | 1013.7 |
| 20260506182829 | 14 | 331 | 3.2 | 0.0 | 0.00 | 0.00 | 0.03 | 55 | 1013.7 |
| 20260506182316 | 14 | 327 | 1.6 | 0.0 | 0.00 | 0.00 | 0.03 | 57 | 1013.7 |
| 20260506181825 | 14 | 346 | 1.6 | 0.0 | 0.00 | 0.00 | 0.03 | 54 | 1014.1 |
| 20260506181332 | 14 | 360 | 1.6 | 0.0 | 0.00 | 0.00 | 0.03 | 58 | 1014.1 |
| 20260506180821 | 13 | 5 | 1.6 | 0.0 | 0.00 | 0.00 | 0.03 | 56 | 1014.1 |
| 20260506180328 | 13 | 345 | 1.6 | 0.0 | 0.00 | 0.00 | 0.03 | 59 | 1014.3 |
| 20260506175820 | 13 | 296 | 3.2 | 0.0 | 0.00 | 0.00 | 0.03 | 56 | 1014.3 |
| 20260506175328 | 13 | 345 | 1.6 | 0.0 | 0.00 | 0.00 | 0.03 | 55 | 1014.3 |
| 20260506174835 | 14 | 355 | 1.6 | 0.0 | 0.00 | 0.00 | 0.03 | 55 | 1014.1 |
| 20260506174323 | 13 | 20 | 1.6 | 0.0 | 0.00 | 0.00 | 0.03 | 57 | 1014.1 |
| 20260506173831 | 13 | 336 | 3.2 | 0.0 | 0.00 | 0.00 | 0.03 | 58 | 1014.1 |
| 20260506172828 | 13 | 301 | 1.6 | 0.0 | 0.00 | 0.00 | 0.03 | 59 | 1014.2 |
| 20260506171827 | 13 | 317 | 3.2 | 0.0 | 0.00 | 0.00 | 0.03 | 56 | 1014.2 |
| 20260506170314 | 13 | 355 | 0.0 | 0.0 | 0.00 | 0.00 | 0.03 | 63 | 1014.3 |
| 20260506164832 | 13 | 144 | 0.0 | 0.0 | 0.00 | 0.00 | 0.03 | 58 | 1014.1 |
| 20260506164319 | 13 | 355 | 0.0 | 0.0 | 0.00 | 0.00 | 0.03 | 60 | 1014.1 |
| 20260506163827 | 12 | 305 | 1.6 | 0.0 | 0.00 | 0.00 | 0.03 | 60 | 1014.1 |
| 20260506163317 | 12 | 329 | 1.6 | 0.0 | 0.00 | 0.00 | 0.03 | 60 | 1014.2 |
| 20260506162826 | 12 | 355 | 0.0 | 0.0 | 0.00 | 0.00 | 0.03 | 60 | 1014.2 |
| 20260506162335 | 13 | 355 | 0.0 | 0.0 | 0.00 | 0.00 | 0.03 | 60 | 1014.2 |
| 20260506161332 | 13 | 355 | 0.0 | 0.0 | 0.00 | 0.00 | 0.03 | 61 | 1014.3 |
| 20260506160821 | 12 | 5 | 0.0 | 0.0 | 0.00 | 0.00 | 0.03 | 64 | 1014.3 |
| 20260506160331 | 12 | 340 | 0.0 | 0.0 | 0.00 | 0.00 | 0.03 | 65 | 1014.2 |